Location: *
(43.4667°N, 11.6833°E)
Time: 20:45:31
(UTC+00:00)

Cosmos 841 Rocket - Pass Details

Date: 19 July 2019
Orbit: 747 x 772 km, 74.0° (Epoch: 24 August)

Event Time Altitude Azimuth Distance (km) Brightness Sun altitude
Rises 22:53:00 0° 338° (NNW) 3,202 8.0 -25.5°
Reaches altitude 10° 22:55:22 10° 338° (NNW) 2,274 6.9 -25.5°
Maximum altitude 23:00:31 84° 251° (WSW) 759 3.3 -25.6°
Enters shadow 23:00:40 82° 214° (SW) 762 3.3 -25.6°
